Bowling Green, KY

2:49 PM CST on December 02, 2016 (GMT -0600)
Bowling Green-Warren County Regional

Weather History for KBWG - July, 2013

Change the Weather History Date:

Saturday, July 6, 2013

  Actual Average Record
Temperature  
Mean Temperature 71 °F 78 °F  
Max Temperature 76 °F 89 °F 103 °F (2012)
Min Temperature 66 °F 68 °F 51 °F (1915)
Degree Days  
Heating Degree Days 0 0  
Month to date heating degree days 0 0  
Since 1 June heating degree days 0 5  
Since 1 July heating degree days 0 0  
Cooling Degree Days 6 14  
Month to date cooling degree days 44 79  
Year to date cooling degree days 591 537  
Since 1 June cooling degree days 378 384  
Growing Degree Days 20 (Base 50)    
Moisture  
Dew Point 65 °F    
Average Humidity 83    
Maximum Humidity 93    
Minimum Humidity 73    
Precipitation  
Precipitation 0.89 in 0.15 in 5.05 in (1920)
Month to date precipitation 6.25 0.86  
Year to date precipitation 33.15 26.99  
Snow  
Snow 0.00 in 0.00 in 0.00 in ()
Month to date snowfall 0.0 0.0  
Since 1 June snowfall 0.0 0.0  
Since 1 July snowfall 0.0 0.0  
Snow Depth 0.00 in    
Sea Level Pressure  
Sea Level Pressure 30.11 in    
Wind  
Wind Speed 5 mph (ESE)    
Max Wind Speed 12 mph    
Max Gust Speed 14 mph    
Visibility 9 miles    
Events Rain    
T = Trace of Precipitation, MM = Missing Value Source: NWS Daily Summary

Daily Weather History Graph

Daily Weather History Graph

Search for Another Location

Airport or City:

Trip Planner

Search our weather history database for the weather conditions in past years. The results will help you decide how hot, cold, wet, or windy it might be!

Date:

Astronomy

Jul. 06, 2013 Rise Set
Actual Time 5:32 AM CDT 8:08 PM CDT
Civil Twilight 5:02 AM CDT 8:38 PM CDT
Nautical Twilight 4:24 AM CDT 9:16 PM CDT
Astronomical Twilight 3:41 AM CDT 9:58 PM CDT
Moon 4:16 AM CDT (7/6) 6:50 PM CDT (7/6)
Length of Visible Light 15h 36m
Length of Day
14h 35m
Waning Crescent, 2% of the Moon is Illuminated
Jul 6
Waning Crescent
Jul 8
New
Jul 15
First Quarter
Jul 22
Full
Jul 29
Last Quarter

Hourly Weather History & Observations

Time (CDT) Temp. Dew Point Humidity Pressure Visibility Wind Dir Wind Speed Gust Speed Precip Events Conditions
12:53 AM 69.1 °F 66.0 °F 90% 30.11 in 10.0 mi NNE 4.6 mph - 0.01 in Rain Light Rain
1:53 AM 68.0 °F 64.9 °F 90% 30.10 in 10.0 mi ENE 4.6 mph - 0.02 in Rain Light Rain
2:35 AM 68.0 °F 64.4 °F 88% 30.11 in 10.0 mi NE 5.8 mph - 0.01 in Rain Light Rain
2:45 AM 68.0 °F 64.4 °F 88% 30.11 in 10.0 mi Calm Calm - 0.01 in Rain Light Rain
2:53 AM 68.0 °F 64.9 °F 90% 30.10 in 10.0 mi NE 6.9 mph - 0.01 in Rain Light Rain
3:06 AM 68.0 °F 64.4 °F 88% 30.10 in 10.0 mi Calm Calm - 0.00 in Rain Light Rain
3:53 AM 68.0 °F 64.9 °F 90% 30.09 in 4.0 mi Calm Calm - 0.08 in Rain Heavy Rain
4:05 AM 66.2 °F 64.4 °F 94% 30.10 in 5.0 mi North 3.5 mph - 0.05 in Rain Rain
4:19 AM 66.2 °F 64.4 °F 94% 30.10 in 7.0 mi NNW 3.5 mph - 0.09 in Rain Rain
4:53 AM 66.0 °F 64.0 °F 93% 30.10 in 4.0 mi Calm Calm - 0.21 in Rain Heavy Rain
5:18 AM 66.2 °F 64.4 °F 94% 30.12 in 4.0 mi Calm Calm - 0.09 in Rain Heavy Rain
5:25 AM 66.2 °F 64.4 °F 94% 30.12 in 4.0 mi Calm Calm - 0.13 in Rain Heavy Rain
5:32 AM 66.2 °F 64.4 °F 94% 30.12 in 1.8 mi Calm Calm - 0.24 in Rain Heavy Rain
5:39 AM 66.2 °F 62.6 °F 88% 30.12 in 2.0 mi NE 4.6 mph - 0.29 in Rain Heavy Rain
5:53 AM 66.0 °F 63.0 °F 90% 30.11 in 7.0 mi East 4.6 mph - 0.36 in Rain Rain
6:53 AM 66.0 °F 64.0 °F 93% 30.12 in 10.0 mi Calm Calm - 0.11 in Rain Light Rain
7:15 AM 66.2 °F 62.6 °F 88% 30.14 in 10.0 mi Calm Calm - 0.02 in Rain Light Rain
7:53 AM 66.0 °F 64.0 °F 93% 30.11 in 10.0 mi ESE 4.6 mph - 0.04 in Rain Light Rain
8:04 AM 66.2 °F 64.4 °F 94% 30.12 in 10.0 mi ESE 5.8 mph - 0.01 in Rain Light Rain
8:17 AM 66.2 °F 64.4 °F 94% 30.13 in 10.0 mi South 4.6 mph - 0.01 in   Mostly Cloudy
8:45 AM 68.0 °F 64.4 °F 88% 30.14 in 10.0 mi South 5.8 mph - 0.01 in   Overcast
8:53 AM 68.0 °F 64.9 °F 90% 30.12 in 10.0 mi South 6.9 mph - 0.01 in   Overcast
9:53 AM 69.1 °F 64.9 °F 87% 30.12 in 10.0 mi South 3.5 mph - N/A   Partly Cloudy
10:53 AM 69.1 °F 64.9 °F 87% 30.14 in 10.0 mi South 6.9 mph - 0.00 in   Mostly Cloudy
11:53 AM 70.0 °F 64.9 °F 84% 30.12 in 10.0 mi SE 5.8 mph - N/A   Clear
12:53 PM 73.0 °F 64.9 °F 76% 30.12 in 10.0 mi South 8.1 mph - N/A   Clear
1:53 PM 75.0 °F 66.0 °F 73% 30.11 in 10.0 mi SE 4.6 mph - N/A   Scattered Clouds
2:14 PM 75.2 °F 66.2 °F 73% 30.12 in 10.0 mi Variable 5.8 mph - N/A   Mostly Cloudy
2:53 PM 75.0 °F 66.9 °F 76% 30.11 in 10.0 mi South 8.1 mph - N/A   Mostly Cloudy
3:53 PM 75.0 °F 66.9 °F 76% 30.10 in 10.0 mi SE 5.8 mph - N/A   Mostly Cloudy
4:53 PM 75.0 °F 66.9 °F 76% 30.08 in 10.0 mi SE 6.9 mph - N/A   Clear
5:53 PM 75.0 °F 66.9 °F 76% 30.08 in 10.0 mi SE 8.1 mph - N/A   Mostly Cloudy
6:53 PM 75.0 °F 66.9 °F 76% 30.09 in 10.0 mi ESE 8.1 mph - N/A   Mostly Cloudy
7:53 PM 73.0 °F 66.0 °F 79% 30.09 in 10.0 mi ESE 5.8 mph - N/A   Partly Cloudy
8:53 PM 72.0 °F 66.0 °F 81% 30.11 in 10.0 mi Calm Calm - N/A   Overcast
9:53 PM 71.1 °F 66.0 °F 84% 30.10 in 10.0 mi ESE 5.8 mph - N/A   Mostly Cloudy
10:53 PM 70.0 °F 66.0 °F 87% 30.10 in 10.0 mi SE 4.6 mph - N/A   Mostly Cloudy
11:53 PM 70.0 °F 66.0 °F 87% 30.11 in 10.0 mi Calm Calm - N/A   Mostly Cloudy